Theta_e
297 298 300 301 300 301 302 302 298 293 293 298 301 306 307 308 310 312 312 310 306 306 306 309 313 315 314 314 314 315 316 316 316 315 315 314 312 311
297 296 296 297 297 298 300 300 301 298 294 298 300 303 305 305 305 306 309 308 306 304 304 306 308 311 312 312 312 312 313 313 314 313 313 312 311 309
295 295 296 297 298 298 299 300 300 299 294 297 300 302 301 301 302 303 304 307 310 303 301 303 304 306 307 308 308 309 310 310 311 311 311 311 309 308
295 294 295 298 296 297 297 297 298 300 297 294 298 298 298 300 301 300 301 304 306 305 301 301 302 303 303 305 305 305 306 306 307 307 307 307 307 305
294 294 295 294 294 294 294 296 298 299 298 296 295 298 298 299 298 298 298 300 302 304 302 300 301 302 303 302 303 302 302 301 301 302 302 301 301 300
292 293 293 293 293 293 294 296 297 296 296 295 294 294 295 296 297 294 293 297 297 300 302 302 301 302 302 301 302 302 302 300 299 298 297 295 295 297
292 292 293 294 295 294 295 293 293 293 293 293 291 292 291 291 291 292 292 293 294 297 298 301 300 301 303 301 302 302 300 299 297 296 294 293 293 293
288 290 289 291 291 291 291 291 291 290 291 291 291 290 291 291 292 291 291 289 287 292 293 296 296 300 301 303 301 299 298 296 295 293 292 292 291 290
289 288 288 291 290 290 289 289 289 289 287 290 290 290 290 290 290 290 290 290 289 293 289 285 286 287 295 300 298 297 296 294 293 292 291 290 289 288
288 288 289 289 290 289 288 288 288 289 289 288 289 290 290 290 290 291 290 288 285 285 286 281 284 283 288 294 296 296 294 292 291 290 289 288 287 287
287 288 288 288 289 290 288 287 287 287 289 290 291 290 290 290 290 289 286 285 283 281 284 282 283 283 284 286 291 292 291 290 289 287 287 287 287 286
286 286 286 286 287 288 287 286 285 286 286 286 285 286 288 287 287 289 288 286 281 280 283 282 283 284 279 284 285 285 286 287 287 287 287 287 287 285
284 284 285 286 286 287 288 287 286 286 285 285 285 285 285 285 285 286 287 287 284 281 285 285 282 281 282 281 284 284 285 285 285 286 287 287 286 285
283 284 284 286 286 287 286 287 286 285 284 283 283 283 284 284 284 284 285 285 285 284 285 286 282 282 282 281 280 283 284 284 285 284 284 285 285 284
284 285 285 286 286 285 285 285 284 284 283 280 280 280 281 281 282 282 283 284 284 285 285 285 283 284 283 281 280 280 280 282 283 282 283 284 283 283
285 285 285 283 283 284 283 283 283 282 281 280 279 280 281 282 281 282 281 281 280 280 283 285 285 284 281 282 281 279 280 278 280 281 281 282 282 282
284 284 283 282 278 282 282 281 280 281 280 280 279 279 279 280 280 281 281 280 279 277 277 280 281 283 283 282 278 279 278 278 279 280 279 278 279 280
284 283 282 278 278 281 280 278 279 279 279 280 279 279 278 278 278 279 279 278 277 277 277 278 279 278 278 278 282 278 278 278 279 279 278 276 275 277
282 282 281 275 276 280 279 279 278 279 280 279 279 278 278 278 277 277 277 277 276 276 276 280 280 279 275 271 275 280 277 277 276 274 276 275 274 275
280 278 276 275 275 278 279 279 278 279 279 278 278 278 278 277 276 276 276 275 275 275 275 276 276 278 275 273 272 272 279 276 275 273 271 272 273 276
280 277 275 275 275 278 279 279 279 279 278 278 278 278 278 277 275 275 275 275 275 274 272 271 270 272 273 276 273 271 271 277 276 274 271 271 270 270
281 278 278 276 276 277 279 279 278 278 278 277 277 277 277 277 275 274 275 273 273 271 270 270 272 273 272 273 270 269 269 269 275 276 275 273 272 269
281 279 278 277 277 278 279 279 278 278 277 277 277 276 276 275 275 274 273 272 272 271 271 270 270 270 267 269 268 266 266 265 268 269 269 273 273 273
Wind_Speed
7 6 5 6 5 5 5 5 4 7 8 7 4 2 5 7 8 10 9 12 14 19 22 23 23 26 30 31 30 29 28 26 25 23 23 24 23 21
6 6 7 7 6 5 6 5 5 8 9 4 7 4 3 5 7 9 11 12 13 19 21 23 23 24 29 31 30 29 26 25 25 25 24 23 24 22
8 8 11 8 6 5 4 5 5 4 9 11 4 4 6 7 7 4 8 10 9 14 18 23 23 22 24 27 30 30 28 26 25 26 26 26 26 25
9 7 10 6 8 6 5 7 6 4 5 16 9 6 7 6 7 8 8 9 10 11 15 19 20 21 20 26 26 27 26 25 24 25 26 26 26 25
8 7 7 5 9 6 5 7 5 6 7 9 10 6 5 4 7 4 7 9 8 13 13 19 22 23 24 24 28 28 27 24 26 25 26 28 26 24
6 7 7 6 7 7 6 7 7 7 8 10 10 8 6 3 4 6 10 6 8 8 11 12 16 22 21 21 29 34 33 30 28 27 26 26 26 22
10 9 8 9 13 9 7 9 9 8 8 8 12 9 4 2 4 3 7 10 11 9 9 7 4 8 12 21 24 35 37 38 36 32 31 28 26 26
10 9 8 12 11 14 17 13 9 9 12 10 10 10 8 4 4 6 8 6 8 3 4 7 4 9 9 11 23 29 36 38 38 37 33 32 30 27
11 10 9 9 12 11 14 15 14 13 12 12 13 10 8 4 4 7 8 7 9 7 2 1 4 3 3 9 25 33 37 39 39 38 35 32 30 27
10 11 13 13 11 12 12 12 10 10 10 8 11 11 8 6 8 8 8 5 1 1 2 2 3 5 4 2 28 33 36 36 36 35 32 30 28 25
9 10 12 15 16 19 13 12 11 9 9 16 16 12 12 12 11 6 6 4 1 2 4 3 2 7 8 8 11 18 33 35 35 33 29 28 26 25
10 11 14 15 20 21 13 11 11 9 6 4 3 6 7 8 13 10 5 5 3 2 1 4 6 4 5 6 8 7 11 32 31 29 28 26 26 10
11 10 10 17 20 22 19 9 10 2 2 4 4 3 3 4 2 1 3 3 4 2 5 4 3 3 5 6 4 6 11 12 12 17 25 24 21 14
12 10 11 21 23 22 13 10 9 4 2 2 2 2 2 0 1 3 5 5 3 2 9 3 5 5 9 9 7 7 8 9 10 10 9 15 18 15
10 14 19 18 19 11 8 8 5 2 1 1 1 1 1 1 2 5 9 11 10 7 5 6 7 10 10 7 9 8 10 7 8 9 8 8 9 8
13 10 10 10 9 6 3 3 2 1 0 1 1 1 1 1 4 4 5 7 8 8 9 8 9 9 9 8 11 10 10 6 8 8 8 7 7 7
13 7 6 3 3 3 2 2 2 2 2 1 3 3 3 5 5 3 3 5 7 6 8 8 12 12 9 12 10 9 9 10 8 9 9 7 6 6
6 6 5 3 4 3 1 1 2 2 2 3 3 3 5 5 5 4 5 7 8 7 8 8 11 12 11 12 13 10 8 8 8 8 8 7 6 5
5 6 5 4 3 3 2 1 1 1 2 3 3 5 5 4 5 5 6 7 7 7 5 4 6 8 10 6 3 13 9 7 8 7 5 4 5 6
6 6 5 4 3 3 2 2 2 2 2 3 5 5 4 4 5 6 5 7 7 7 7 6 6 6 9 6 6 3 9 10 8 5 4 4 5 10
8 6 4 4 3 2 2 2 3 3 2 4 4 5 5 5 6 6 7 8 9 7 8 6 3 6 8 6 8 6 6 13 7 6 4 5 3 2
7 6 5 3 3 2 3 3 3 4 3 4 5 5 5 5 6 7 7 8 7 7 8 5 3 4 5 6 9 7 5 5 13 17 13 6 4 4
8 7 5 3 3 3 3 3 4 4 3 4 4 5 5 6 6 7 8 8 9 8 7 6 5 6 6 6 8 4 5 3 3 4 4 11 9 7
Wind_Direction
247 246 237 243 237 242 242 238 252 280 282 288 298 265 339 326 313 298 267 249 217 225 226 225 216 205 197 192 191 189 199 196 191 187 179 180 172 173
256 248 249 255 247 238 239 230 242 270 286 323 278 282 275 287 308 318 308 270 253 232 224 228 223 212 205 193 188 188 191 190 184 181 175 174 168 166
270 255 260 254 255 247 237 235 228 218 283 291 272 285 288 291 291 294 310 303 273 232 225 226 221 215 212 195 187 184 184 181 181 177 171 165 165 157
280 272 266 278 282 275 260 250 240 238 250 280 286 289 281 281 285 309 305 298 293 278 230 225 227 222 215 201 187 178 174 171 178 170 158 155 153 153
294 288 282 290 290 286 260 258 252 262 249 264 282 282 269 257 281 283 302 290 291 286 260 228 224 223 220 202 182 175 162 160 162 160 157 146 145 146
298 291 288 278 274 289 286 274 272 271 265 267 277 272 256 247 268 307 304 290 284 290 273 246 227 224 216 197 192 170 164 158 152 145 140 136 140 143
308 304 304 298 294 276 278 285 289 286 275 267 278 275 254 245 248 286 284 294 296 295 282 268 226 235 219 208 193 175 163 154 146 142 139 136 129 131
302 300 296 310 306 295 293 272 253 274 273 267 265 262 268 248 243 252 265 283 296 209 252 263 287 224 210 201 195 175 159 149 143 141 138 133 132 133
289 293 290 294 291 290 289 275 258 252 244 260 267 264 268 240 242 256 255 253 273 293 165 341 337 350 263 188 173 167 156 148 144 139 136 135 133 136
296 296 294 299 294 284 277 274 264 255 252 243 244 259 258 261 260 264 268 267 182 49 40 79 339 19 351 61 162 163 150 142 138 132 130 130 132 140
296 297 297 299 297 292 286 276 271 257 243 250 249 250 264 272 267 275 251 216 180 18 30 93 3 75 48 51 94 132 134 131 120 118 128 134 142 143
302 301 297 297 296 294 290 279 277 268 247 237 247 260 263 275 278 255 208 209 132 111 188 94 138 96 54 18 73 107 117 102 113 125 134 144 146 143
312 309 305 304 305 304 294 282 266 280 239 244 241 252 258 268 257 259 158 178 149 110 168 135 137 90 86 120 80 97 102 112 120 127 140 146 149 151
309 305 298 306 308 307 303 296 298 291 231 245 268 274 268 299 55 78 88 81 71 127 149 194 118 143 130 119 112 116 106 110 115 122 130 144 148 144
297 288 292 301 307 304 313 321 324 313 272 194 229 313 344 78 114 80 76 79 68 76 74 90 116 125 130 124 130 129 123 112 118 122 127 135 140 143
304 292 289 291 286 298 316 9 10 7 330 94 76 73 48 38 62 64 93 93 84 67 63 90 113 125 114 119 127 124 129 133 132 123 120 114 119 139
301 295 291 283 295 303 337 30 36 32 42 84 101 87 79 77 61 54 73 84 102 106 87 76 76 80 83 121 116 122 118 120 124 127 130 120 121 130
303 296 300 282 279 284 266 44 27 48 70 91 79 82 77 74 76 63 78 96 104 104 105 107 108 101 88 56 56 115 113 121 126 124 126 116 101 100
323 311 307 300 281 269 208 173 136 100 94 86 94 85 83 77 84 84 90 97 90 92 75 91 117 123 116 103 69 49 119 118 114 99 110 96 122 134
319 304 300 295 284 258 186 148 125 115 98 106 98 93 89 96 99 92 90 103 101 95 83 64 67 96 118 123 110 45 82 125 125 107 105 80 67 106
326 309 293 293 277 238 166 147 129 135 133 121 105 106 105 105 96 95 93 95 101 96 89 76 46 93 108 106 96 84 41 57 93 120 122 104 102 113
318 303 297 284 264 208 157 145 129 137 133 117 113 110 107 112 115 114 110 104 91 92 97 94 74 85 60 104 106 102 91 45 68 80 77 92 149 176
310 308 293 275 249 199 155 148 144 144 145 130 129 120 119 115 113 110 111 110 112 108 104 95 77 72 73 91 105 98 95 69 47 89 63 48 64 67